Regional Weather Roundup
Issued by NWS

Home | Current Version | Previous Version | Graphics & Text | Print | Product List | Glossary On
Versions: 1 2 3 4 5 6 7 8 9 10 11 12 13 14 15 16 17 18 19 20 21 22 23 24 25 26 27 28 29 30 31 32 33 34 35 36 37 38 39 40 41 42 43 44 45 46 47 48 49 50
689
ASUS43 KLSX 030210
RWRMO

WEATHER SUMMARY FOR MISSOURI
NATIONAL WEATHER SERVICE SPRINGFIELD MO
800 PM CST FRI DEC 02 2016

NOTE: "FAIR" INDICATES FEW OR NO CLOUDS BELOW 12,000 FEET WITH NO
       SIGNIFICANT WEATHER AND/OR OBSTRUCTIONS TO VISIBILITY.
       CURRENT SKY AND/OR WEATHER CONDITIONS ARE NOT AVAILABLE FOR
       CHILLICOTHE AND FARMINGTON.

MOZ001>031-035>038-043-044-053-054-030300-
...NORTHERN AND WESTERN MISSOURI...

CITY           SKY/WX    TMP DP  RH WIND       PRES   REMARKS
KANSAS CTY INT PTCLDY    38  25  59 NE5       30.32R
KANSAS C DTWN  CLEAR     40  28  62 CALM      30.32S
LEE`S SUMMIT   CLOUDY    40  26  57 NE3       30.32S
ST JOSEPH      CLEAR     29  24  82 N5        30.34R WCI  24
CHILLICOTHE      N/A     30  26  85 CALM      30.34R
KIRKSVILLE     CLEAR     32  27  81 N6        30.34R WCI  26

$$
MOZ066>068-077>081-088>096-101>105-030300-
...SOUTHWEST MISSOURI...

CITY           SKY/WX    TMP DP  RH WIND       PRES   REMARKS
SPRINGFIELD    CLOUDY    48  25  40 NE8       30.26S
JOPLIN         CLEAR     47  27  45 NE7       30.26R
BRANSON        CLOUDY    48  32  53 E7        30.26R

$$
MOZ032>034-039>042-045>050-055>058-069>072-030300-
...CENTRAL MISSOURI...

CITY           SKY/WX    TMP DP  RH WIND       PRES   REMARKS
COLUMBIA       CLEAR     39  26  59 NE6       30.32R
JEFFERSON CITY CLEAR     33  26  75 CALM      30.33R
ROLLA          CLOUDY    32  25  75 NE3       30.30R
SEDALIA        CLEAR     39  27  62 N5        30.33S
WHITEMAN AFB   CLOUDY    36  28  70 CALM      30.31S
WARRENSBURG    CLEAR     36  27  69 N3        30.32S
OSAGE BEACH    PTCLDY    42  25  50 NE5       30.31S

$$
MOZ051-052-059>065-030300-
...EAST CENTRAL MISSOURI...

CITY           SKY/WX    TMP DP  RH WIND       PRES   REMARKS
ST LOUIS INTL  PTCLDY    39  28  64 CALM      30.34R
SPIRIT OF STL  CLOUDY    31  28  89 CALM      30.34R

$$
MOZ072>076-082>087-097>100-106>115-030300-
...SOUTH CENTRAL AND SOUTHEAST MISSOURI...

CITY           SKY/WX    TMP DP  RH WIND       PRES   REMARKS
CAPE GIRARDEAU CLEAR     37  31  78 N6        30.33R
FARMINGTON     PTCLDY    34  29  82 CALM      30.33R HAZE
WEST PLAINS    CLOUDY    42  28  57 NE6       30.28F

$$




USA.gov is the U.S. government's official web portal to all federal, state and local government web resources and services.